Retour au catalogue

COSMOS 2251 DEB

ActifLEO
NORAD 33826·DEBRIS·🇷🇺 Russia

Lancé Jun 16, 1993 depuis Plesetsk Cosmodrome

Loading…

Prochains Passages (prochaines 24 heures)

TLE

FraisSource: Space-Track

Époque: Sep 14, 2026, 11:19 UTC

1 33826U 93036BT  26257.47209593  .00004521  00000-0  10110-2 0  9991
2 33826  74.0618 250.0123 0083512 227.0503 299.8653 14.54860788917753

Suivez COSMOS 2251 DEB en temps réel avec AllMySat

Download on the App Store